When you browse on this site, cookies collect data to enhance your experience and personalize the content and advertising you see.
Visit our Privacy Policy to learn more. By continuing to use the site, you agree to this use of cookies and data.
  • In Czech Republic
  • List of Countries
  • For 7 days
  • Water Temperature
  • Weather Map
  • Weather Widgets
  • user-avatar
    Login

    Hourly Weather Puerto Wilches

    Today, 6 June, Saturday

    Time Temperature Precipitation Wind Pressure Humidity
    00:00 +26°C° 2.8 mm 1 mps 754 mmHg 98%
    01:00 +26°C° 0 mm 1 mps 754 mmHg 97%
    02:00 +26°C° 3.1 mm 1 mps 754 mmHg 98%
    03:00 +25°C° 3.1 mm 1 mps 754 mmHg 98%
    04:00 +25°C° 3.1 mm 1 mps 754 mmHg 98%
    05:00 +25°C° 1 mm 1 mps 755 mmHg 98%
    06:00 +25°C° 1 mm 1 mps 755 mmHg 98%
    07:00 +24°C° 0 mm 0 mps 756 mmHg 98%
    08:00 +25°C° 0.3 mm 0 mps 756 mmHg 89%
    09:00 +29°C° 0.3 mm 1 mps 756 mmHg 80%
    10:00 +31°C° 0.3 mm 1 mps 755 mmHg 70%
    11:00 +33°C° 0 mm 1 mps 755 mmHg 63%
    12:00 +33°C° 0 mm 0 mps 754 mmHg 57%
    13:00 +35°C° 0 mm 0 mps 753 mmHg 50%
    14:00 +34°C° 0 mm 0 mps 753 mmHg 52%
    15:00 +35°C° 0 mm 1 mps 752 mmHg 54%
    16:00 +35°C° 0 mm 1 mps 752 mmHg 56%
    17:00 +33°C° 0.2 mm 1 mps 752 mmHg 66%
    18:00 +31°C° 0.2 mm 1 mps 753 mmHg 76%
    19:00 +29°C° 0.2 mm 1 mps 753 mmHg 85%
    20:00 +26°C° 0.8 mm 0 mps 754 mmHg 88%
    21:00 +26°C° 0.8 mm 0 mps 755 mmHg 90%
    22:00 +25°C° 0.8 mm 0 mps 755 mmHg 93%
    23:00 +25°C° 1.4 mm 0 mps 755 mmHg 94%

    Tomorrow, 7 June, Sunday

    Time Temperature Precipitation Wind Pressure Humidity
    00:00 +25°C° 1.4 mm 0 mps 755 mmHg 96%
    01:00 +24°C° 1.4 mm 0 mps 755 mmHg 97%
    02:00 +24°C° 2.6 mm 0 mps 755 mmHg 97%
    03:00 +24°C° 2.6 mm 0 mps 755 mmHg 98%
    04:00 +24°C° 2.6 mm 0 mps 754 mmHg 99%
    05:00 +24°C° 1.3 mm 0 mps 755 mmHg 98%
    06:00 +24°C° 1.3 mm 0 mps 755 mmHg 98%
    07:00 +24°C° 1.3 mm 0 mps 756 mmHg 98%
    08:00 +25°C° 0.1 mm 0 mps 756 mmHg 93%
    09:00 +27°C° 0.1 mm 0 mps 756 mmHg 87%
    10:00 +28°C° 0.1 mm 0 mps 756 mmHg 81%
    11:00 +29°C° 0 mm 0 mps 755 mmHg 74%
    12:00 +31°C° 0 mm 0 mps 754 mmHg 67%
    13:00 +32°C° 0 mm 0 mps 753 mmHg 60%
    14:00 +32°C° 0 mm 0 mps 753 mmHg 61%
    15:00 +32°C° 0 mm 0 mps 752 mmHg 62%
    16:00 +31°C° 0 mm 0 mps 752 mmHg 63%
    17:00 +30°C° 0 mm 0 mps 752 mmHg 70%
    18:00 +28°C° 0 mm 0 mps 753 mmHg 77%
    19:00 +27°C° 0 mm 0 mps 753 mmHg 85%
    20:00 +26°C° 1 mm 0 mps 754 mmHg 87%
    21:00 +26°C° 1 mm 0 mps 754 mmHg 89%
    22:00 +26°C° 1 mm 0 mps 755 mmHg 91%
    23:00 +25°C° 2.2 mm 0 mps 755 mmHg 93%

    Day after tomorrow, 8 June, Monday

    Time Temperature Precipitation Wind Pressure Humidity
    00:00 +25°C° 2.2 mm 0 mps 754 mmHg 95%
    01:00 +24°C° 2.2 mm 0 mps 754 mmHg 98%
    02:00 +24°C° 2.3 mm 0 mps 754 mmHg 98%
    03:00 +24°C° 2.3 mm 0 mps 754 mmHg 98%
    04:00 +24°C° 2.3 mm 0 mps 754 mmHg 98%
    05:00 +24°C° 1.7 mm 0 mps 755 mmHg 98%
    06:00 +24°C° 1.7 mm 0 mps 755 mmHg 98%
    07:00 +24°C° 1.7 mm 0 mps 755 mmHg 98%
    08:00 +24°C° 0.3 mm 0 mps 756 mmHg 94%
    09:00 +27°C° 0.3 mm 1 mps 756 mmHg 91%
    10:00 +28°C° 0.3 mm 1 mps 756 mmHg 87%
    11:00 +29°C° 0 mm 1 mps 755 mmHg 82%
    12:00 +30°C° 0 mm 1 mps 754 mmHg 76%
    13:00 +31°C° 0 mm 1 mps 753 mmHg 71%
    14:00 +32°C° 0 mm 1 mps 753 mmHg 66%
    15:00 +32°C° 0 mm 1 mps 752 mmHg 62%
    16:00 +31°C° 0 mm 0 mps 752 mmHg 58%
    17:00 +29°C° 0 mm 0 mps 752 mmHg 65%
    18:00 +28°C° 0 mm 0 mps 753 mmHg 72%
    19:00 +26°C° 0 mm 0 mps 753 mmHg 79%
    20:00 +25°C° 0.6 mm 0 mps 754 mmHg 83%
    21:00 +27°C° 0.6 mm 1 mps 754 mmHg 88%
    22:00 +26°C° 0.6 mm 1 mps 755 mmHg 92%
    23:00 +26°C° 1.3 mm 1 mps 755 mmHg 94%

    9 June, Tuesday

    Time Temperature Precipitation Wind Pressure Humidity
    00:00 +25°C° 1.3 mm 1 mps 755 mmHg 96%
    01:00 +25°C° 1.3 mm 1 mps 755 mmHg 98%
    02:00 +25°C° 0.3 mm 1 mps 755 mmHg 98%
    03:00 +25°C° 0.3 mm 1 mps 754 mmHg 98%
    04:00 +22°C° 0.3 mm 0 mps 754 mmHg 98%
    05:00 +23°C° 0 mm 0 mps 754 mmHg 97%
    06:00 +23°C° 0 mm 0 mps 755 mmHg 96%
    07:00 +23°C° 0 mm 0 mps 755 mmHg 96%
    08:00 +26°C° 0 mm 0 mps 755 mmHg 84%
    09:00 +28°C° 0 mm 0 mps 754 mmHg 73%
    10:00 +32°C° 0 mm 1 mps 754 mmHg 62%
    11:00 +33°C° 0 mm 1 mps 754 mmHg 57%
    12:00 +35°C° 0 mm 1 mps 753 mmHg 52%
    13:00 +34°C° 0 mm 0 mps 752 mmHg 47%
    14:00 +36°C° 0.1 mm 1 mps 752 mmHg 50%
    15:00 +35°C° 0.1 mm 1 mps 751 mmHg 52%
    16:00 +35°C° 0.1 mm 1 mps 751 mmHg 55%
    17:00 +32°C° 0.2 mm 1 mps 751 mmHg 65%
    18:00 +30°C° 0.2 mm 1 mps 752 mmHg 76%
    19:00 +28°C° 0.2 mm 1 mps 752 mmHg 87%
    20:00 +27°C° 2.1 mm 1 mps 753 mmHg 90%
    21:00 +27°C° 2.1 mm 1 mps 754 mmHg 93%
    22:00 +26°C° 2.1 mm 1 mps 755 mmHg 97%
    23:00 +26°C° 4.3 mm 1 mps 755 mmHg 97%

    10 June, Wednesday

    Time Temperature Precipitation Wind Pressure Humidity
    00:00 +26°C° 4.3 mm 1 mps 754 mmHg 98%
    01:00 +23°C° 4.3 mm 0 mps 754 mmHg 99%
    02:00 +25°C° 3.8 mm 1 mps 754 mmHg 99%
    03:00 +25°C° 3.8 mm 1 mps 754 mmHg 99%
    04:00 +25°C° 3.8 mm 1 mps 754 mmHg 99%
    05:00 +23°C° 6.8 mm 0 mps 754 mmHg 99%
    06:00 +23°C° 6.8 mm 0 mps 755 mmHg 99%
    07:00 +23°C° 6.8 mm 0 mps 755 mmHg 99%
    08:00 +23°C° 0.7 mm 0 mps 755 mmHg 97%
    09:00 +24°C° 0.7 mm 0 mps 755 mmHg 95%
    10:00 +25°C° 0.7 mm 0 mps 755 mmHg 93%
    11:00 +27°C° 0 mm 0 mps 755 mmHg 83%
    12:00 +29°C° 0 mm 0 mps 754 mmHg 72%
    13:00 +30°C° 0 mm 0 mps 753 mmHg 62%
    14:00 +30°C° 0 mm 0 mps 752 mmHg 64%
    15:00 +29°C° 0 mm 0 mps 752 mmHg 67%
    16:00 +31°C° 0 mm 1 mps 752 mmHg 69%
    17:00 +30°C° 0 mm 1 mps 752 mmHg 75%
    18:00 +26°C° 0 mm 0 mps 753 mmHg 81%
    19:00 +25°C° 0 mm 0 mps 753 mmHg 87%
    20:00 +25°C° 0.1 mm 0 mps 754 mmHg 88%
    21:00 +24°C° 0.1 mm 0 mps 754 mmHg 89%
    22:00 +24°C° 0.1 mm 0 mps 755 mmHg 90%
    23:00 +24°C° 0.4 mm 0 mps 755 mmHg 91%

    11 June, Thursday

    Time Temperature Precipitation Wind Pressure Humidity
    00:00 +23°C° 0.4 mm 0 mps 754 mmHg 93%
    01:00 +23°C° 0.4 mm 0 mps 754 mmHg 95%
    02:00 +23°C° 0.3 mm 0 mps 754 mmHg 95%
    03:00 +23°C° 0.3 mm 0 mps 754 mmHg 96%
    04:00 +23°C° 0.3 mm 0 mps 754 mmHg 97%
    05:00 +23°C° 0.2 mm 0 mps 754 mmHg 96%
    06:00 +23°C° 0.2 mm 0 mps 754 mmHg 95%
    07:00 +24°C° 0.2 mm 0 mps 754 mmHg 94%
    08:00 +26°C° 0 mm 0 mps 754 mmHg 85%
    09:00 +28°C° 0 mm 0 mps 754 mmHg 76%
    10:00 +30°C° 0 mm 0 mps 754 mmHg 66%
    11:00 +33°C° 0.1 mm 1 mps 753 mmHg 62%
    12:00 +34°C° 0.1 mm 1 mps 753 mmHg 57%
    13:00 +35°C° 0.1 mm 1 mps 752 mmHg 52%
    14:00 +34°C° 0.3 mm 1 mps 751 mmHg 57%
    15:00 +34°C° 0.3 mm 1 mps 751 mmHg 62%
    16:00 +33°C° 0.3 mm 1 mps 751 mmHg 66%
    17:00 +31°C° 1 mm 1 mps 751 mmHg 75%
    18:00 +29°C° 1 mm 1 mps 752 mmHg 85%
    19:00 +25°C° 1 mm 0 mps 753 mmHg 94%
    20:00 +27°C° 3 mm 1 mps 753 mmHg 95%
    21:00 +26°C° 3 mm 1 mps 754 mmHg 97%
    22:00 +26°C° 3 mm 1 mps 755 mmHg 98%
    23:00 +26°C° 3.2 mm 1 mps 755 mmHg 98%
    Show more